Data supplied by UK-AIR on 9/6/2008
All Data GMT hour ending 
Status: R =Ratified P=Provisional,P*=As supplied
,,Cambridge Roadside,,,,,,,,,,,,,,,,,,,,,,,
Date,time,"Nitric oxide",status,unit,"Nitrogen dioxide",status,unit,"Nitrogen oxides as nitrogen dioxide",status,unit
 
01-01-2007,01:00,3,R,ugm-3,11,R,ugm-3,15,R,ugm-3
01-01-2007,02:00,5,R,ugm-3,19,R,ugm-3,27,R,ugm-3
01-01-2007,03:00,6,R,ugm-3,23,R,ugm-3,32,R,ugm-3
01-01-2007,04:00,4,R,ugm-3,11,R,ugm-3,17,R,ugm-3
01-01-2007,05:00,5,R,ugm-3,13,R,ugm-3,21,R,ugm-3
01-01-2007,06:00,1,R,ugm-3,10,R,ugm-3,11,R,ugm-3
01-01-2007,07:00,3,R,ugm-3,11,R,ugm-3,15,R,ugm-3
01-01-2007,08:00,6,R,ugm-3,23,R,ugm-3,32,R,ugm-3
01-01-2007,09:00,5,R,ugm-3,21,R,ugm-3,29,R,ugm-3
01-01-2007,10:00,4,R,ugm-3,15,R,ugm-3,21,R,ugm-3
01-01-2007,11:00,8,R,ugm-3,13,R,ugm-3,25,R,ugm-3
01-01-2007,12:00,8,R,ugm-3,21,R,ugm-3,32,R,ugm-3
01-01-2007,13:00,10,R,ugm-3,27,R,ugm-3,42,R,ugm-3
01-01-2007,14:00,9,R,ugm-3,21,R,ugm-3,34,R,ugm-3
01-01-2007,15:00,8,R,ugm-3,19,R,ugm-3,31,R,ugm-3
01-01-2007,16:00,10,R,ugm-3,29,R,ugm-3,44,R,ugm-3
01-01-2007,17:00,16,R,ugm-3,38,R,ugm-3,63,R,ugm-3
01-01-2007,18:00,15,R,ugm-3,48,R,ugm-3,71,R,ugm-3
01-01-2007,19:00,14,R,ugm-3,38,R,ugm-3,59,R,ugm-3
01-01-2007,20:00,6,R,ugm-3,25,R,ugm-3,34,R,ugm-3
01-01-2007,21:00,5,R,ugm-3,21,R,ugm-3,29,R,ugm-3
01-01-2007,22:00,6,R,ugm-3,19,R,ugm-3,29,R,ugm-3
01-01-2007,23:00,4,R,ugm-3,19,R,ugm-3,25,R,ugm-3
01-01-2007,24:00,6,R,ugm-3,27,R,ugm-3,36,R,ugm-3
02-01-2007,01:00,5,R,ugm-3,23,R,ugm-3,31,R,ugm-3
02-01-2007,02:00,3,R,ugm-3,15,R,ugm-3,19,R,ugm-3
02-01-2007,03:00,4,R,ugm-3,19,R,ugm-3,25,R,ugm-3
02-01-2007,04:00,3,R,ugm-3,21,R,ugm-3,25,R,ugm-3
02-01-2007,05:00,3,R,ugm-3,17,R,ugm-3,21,R,ugm-3
02-01-2007,06:00,5,R,ugm-3,25,R,ugm-3,32,R,ugm-3
02-01-2007,07:00,10,R,ugm-3,23,R,ugm-3,38,R,ugm-3
02-01-2007,08:00,25,R,ugm-3,40,R,ugm-3,78,R,ugm-3
02-01-2007,09:00,40,R,ugm-3,48,R,ugm-3,109,R,ugm-3
02-01-2007,10:00,46,R,ugm-3,57,R,ugm-3,128,R,ugm-3
02-01-2007,11:00,39,R,ugm-3,46,R,ugm-3,105,R,ugm-3
02-01-2007,12:00,33,R,ugm-3,38,R,ugm-3,88,R,ugm-3
02-01-2007,13:00,33,R,ugm-3,36,R,ugm-3,86,R,ugm-3
02-01-2007,14:00,33,R,ugm-3,36,R,ugm-3,86,R,ugm-3
02-01-2007,15:00,35,R,ugm-3,40,R,ugm-3,94,R,ugm-3
02-01-2007,16:00,35,R,ugm-3,44,R,ugm-3,97,R,ugm-3
02-01-2007,17:00,,,,,,,,,
02-01-2007,18:00,74,R,ugm-3,63,R,ugm-3,176,R,ugm-3
02-01-2007,19:00,93,R,ugm-3,67,R,ugm-3,208,R,ugm-3
02-01-2007,20:00,46,R,ugm-3,55,R,ugm-3,126,R,ugm-3
02-01-2007,21:00,25,R,ugm-3,48,R,ugm-3,86,R,ugm-3
02-01-2007,22:00,36,R,ugm-3,55,R,ugm-3,111,R,ugm-3
02-01-2007,23:00,28,R,ugm-3,50,R,ugm-3,92,R,ugm-3
02-01-2007,24:00,39,R,ugm-3,53,R,ugm-3,113,R,ugm-3
03-01-2007,01:00,11,R,ugm-3,42,R,ugm-3,59,R,ugm-3
03-01-2007,02:00,4,R,ugm-3,25,R,ugm-3,31,R,ugm-3
03-01-2007,03:00,4,R,ugm-3,23,R,ugm-3,29,R,ugm-3
03-01-2007,04:00,4,R,ugm-3,23,R,ugm-3,29,R,ugm-3
03-01-2007,05:00,4,R,ugm-3,25,R,ugm-3,31,R,ugm-3
03-01-2007,06:00,6,R,ugm-3,25,R,ugm-3,34,R,ugm-3
03-01-2007,07:00,13,R,ugm-3,36,R,ugm-3,55,R,ugm-3
03-01-2007,08:00,16,R,ugm-3,40,R,ugm-3,65,R,ugm-3
03-01-2007,09:00,50,R,ugm-3,53,R,ugm-3,130,R,ugm-3
03-01-2007,10:00,51,R,ugm-3,55,R,ugm-3,134,R,ugm-3
03-01-2007,11:00,40,R,ugm-3,52,R,ugm-3,113,R,ugm-3
03-01-2007,12:00,38,R,ugm-3,50,R,ugm-3,107,R,ugm-3
03-01-2007,13:00,43,R,ugm-3,52,R,ugm-3,117,R,ugm-3
03-01-2007,14:00,45,R,ugm-3,46,R,ugm-3,115,R,ugm-3
03-01-2007,15:00,46,R,ugm-3,55,R,ugm-3,126,R,ugm-3
03-01-2007,16:00,43,R,ugm-3,48,R,ugm-3,113,R,ugm-3
03-01-2007,17:00,39,R,ugm-3,44,R,ugm-3,103,R,ugm-3
03-01-2007,18:00,34,R,ugm-3,36,R,ugm-3,88,R,ugm-3
03-01-2007,19:00,36,R,ugm-3,36,R,ugm-3,92,R,ugm-3
03-01-2007,20:00,15,R,ugm-3,27,R,ugm-3,50,R,ugm-3
03-01-2007,21:00,8,R,ugm-3,19,R,ugm-3,31,R,ugm-3
03-01-2007,22:00,9,R,ugm-3,23,R,ugm-3,36,R,ugm-3
03-01-2007,23:00,5,R,ugm-3,13,R,ugm-3,21,R,ugm-3
03-01-2007,24:00,6,R,ugm-3,17,R,ugm-3,27,R,ugm-3
04-01-2007,01:00,3,R,ugm-3,11,R,ugm-3,15,R,ugm-3
04-01-2007,02:00,1,R,ugm-3,11,R,ugm-3,13,R,ugm-3
04-01-2007,03:00,1,R,ugm-3,8,R,ugm-3,10,R,ugm-3
04-01-2007,04:00,3,R,ugm-3,13,R,ugm-3,17,R,ugm-3
04-01-2007,05:00,3,R,ugm-3,15,R,ugm-3,19,R,ugm-3
04-01-2007,06:00,5,R,ugm-3,23,R,ugm-3,31,R,ugm-3
04-01-2007,07:00,8,R,ugm-3,32,R,ugm-3,44,R,ugm-3
04-01-2007,08:00,14,R,ugm-3,32,R,ugm-3,53,R,ugm-3
04-01-2007,09:00,45,R,ugm-3,57,R,ugm-3,126,R,ugm-3
04-01-2007,10:00,48,R,ugm-3,55,R,ugm-3,128,R,ugm-3
04-01-2007,11:00,34,R,ugm-3,44,R,ugm-3,96,R,ugm-3
04-01-2007,12:00,25,R,ugm-3,32,R,ugm-3,71,R,ugm-3
04-01-2007,13:00,41,R,ugm-3,40,R,ugm-3,103,R,ugm-3
04-01-2007,14:00,30,R,ugm-3,36,R,ugm-3,82,R,ugm-3
04-01-2007,15:00,35,R,ugm-3,36,R,ugm-3,90,R,ugm-3
04-01-2007,16:00,35,R,ugm-3,40,R,ugm-3,94,R,ugm-3
04-01-2007,17:00,44,R,ugm-3,53,R,ugm-3,120,R,ugm-3
04-01-2007,18:00,34,R,ugm-3,46,R,ugm-3,97,R,ugm-3
04-01-2007,19:00,53,R,ugm-3,59,R,ugm-3,139,R,ugm-3
04-01-2007,20:00,33,R,ugm-3,44,R,ugm-3,94,R,ugm-3
04-01-2007,21:00,20,R,ugm-3,44,R,ugm-3,74,R,ugm-3
04-01-2007,22:00,16,R,ugm-3,42,R,ugm-3,67,R,ugm-3
04-01-2007,23:00,15,R,ugm-3,42,R,ugm-3,65,R,ugm-3
04-01-2007,24:00,14,R,ugm-3,38,R,ugm-3,59,R,ugm-3
05-01-2007,01:00,10,R,ugm-3,38,R,ugm-3,53,R,ugm-3
05-01-2007,02:00,5,R,ugm-3,23,R,ugm-3,31,R,ugm-3
05-01-2007,03:00,4,R,ugm-3,19,R,ugm-3,25,R,ugm-3
05-01-2007,04:00,5,R,ugm-3,23,R,ugm-3,31,R,ugm-3
05-01-2007,05:00,3,R,ugm-3,17,R,ugm-3,21,R,ugm-3
05-01-2007,06:00,9,R,ugm-3,32,R,ugm-3,46,R,ugm-3
05-01-2007,07:00,10,R,ugm-3,38,R,ugm-3,53,R,ugm-3
05-01-2007,08:00,26,R,ugm-3,42,R,ugm-3,82,R,ugm-3
05-01-2007,09:00,68,R,ugm-3,59,R,ugm-3,162,R,ugm-3
05-01-2007,10:00,69,R,ugm-3,69,R,ugm-3,174,R,ugm-3
05-01-2007,11:00,56,R,ugm-3,63,R,ugm-3,149,R,ugm-3
05-01-2007,12:00,51,R,ugm-3,57,R,ugm-3,136,R,ugm-3
05-01-2007,13:00,45,R,ugm-3,44,R,ugm-3,113,R,ugm-3
05-01-2007,14:00,51,R,ugm-3,48,R,ugm-3,126,R,ugm-3
05-01-2007,15:00,46,R,ugm-3,50,R,ugm-3,120,R,ugm-3
05-01-2007,16:00,65,R,ugm-3,57,R,ugm-3,157,R,ugm-3
05-01-2007,17:00,89,R,ugm-3,65,R,ugm-3,201,R,ugm-3
05-01-2007,18:00,99,R,ugm-3,69,R,ugm-3,220,R,ugm-3
05-01-2007,19:00,74,R,ugm-3,61,R,ugm-3,174,R,ugm-3
05-01-2007,20:00,55,R,ugm-3,65,R,ugm-3,149,R,ugm-3
05-01-2007,21:00,25,R,ugm-3,53,R,ugm-3,92,R,ugm-3
05-01-2007,22:00,35,R,ugm-3,55,R,ugm-3,109,R,ugm-3
05-01-2007,23:00,48,R,ugm-3,61,R,ugm-3,134,R,ugm-3
05-01-2007,24:00,25,R,ugm-3,48,R,ugm-3,86,R,ugm-3
06-01-2007,01:00,23,R,ugm-3,38,R,ugm-3,73,R,ugm-3
06-01-2007,02:00,13,R,ugm-3,32,R,ugm-3,52,R,ugm-3
06-01-2007,03:00,9,R,ugm-3,29,R,ugm-3,42,R,ugm-3
06-01-2007,04:00,8,R,ugm-3,31,R,ugm-3,42,R,ugm-3
06-01-2007,05:00,4,R,ugm-3,23,R,ugm-3,29,R,ugm-3
06-01-2007,06:00,5,R,ugm-3,27,R,ugm-3,34,R,ugm-3
06-01-2007,07:00,9,R,ugm-3,38,R,ugm-3,52,R,ugm-3
06-01-2007,08:00,15,R,ugm-3,36,R,ugm-3,59,R,ugm-3
06-01-2007,09:00,35,R,ugm-3,44,R,ugm-3,97,R,ugm-3
06-01-2007,10:00,46,R,ugm-3,52,R,ugm-3,122,R,ugm-3
06-01-2007,11:00,90,R,ugm-3,67,R,ugm-3,204,R,ugm-3
06-01-2007,12:00,128,R,ugm-3,74,R,ugm-3,269,R,ugm-3
06-01-2007,13:00,159,R,ugm-3,80,R,ugm-3,323,R,ugm-3
06-01-2007,14:00,139,R,ugm-3,73,R,ugm-3,285,R,ugm-3
06-01-2007,15:00,116,R,ugm-3,71,R,ugm-3,248,R,ugm-3
06-01-2007,16:00,84,R,ugm-3,65,R,ugm-3,193,R,ugm-3
06-01-2007,17:00,123,R,ugm-3,76,R,ugm-3,264,R,ugm-3
06-01-2007,18:00,116,R,ugm-3,76,R,ugm-3,254,R,ugm-3
06-01-2007,19:00,110,R,ugm-3,73,R,ugm-3,241,R,ugm-3
06-01-2007,20:00,79,R,ugm-3,63,R,ugm-3,183,R,ugm-3
06-01-2007,21:00,46,R,ugm-3,53,R,ugm-3,124,R,ugm-3
06-01-2007,22:00,33,R,ugm-3,48,R,ugm-3,97,R,ugm-3
06-01-2007,23:00,33,R,ugm-3,42,R,ugm-3,92,R,ugm-3
06-01-2007,24:00,16,R,ugm-3,31,R,ugm-3,55,R,ugm-3
07-01-2007,01:00,11,R,ugm-3,27,R,ugm-3,44,R,ugm-3
07-01-2007,02:00,13,R,ugm-3,32,R,ugm-3,52,R,ugm-3
07-01-2007,03:00,10,R,ugm-3,25,R,ugm-3,40,R,ugm-3
07-01-2007,04:00,5,R,ugm-3,15,R,ugm-3,23,R,ugm-3
07-01-2007,05:00,4,R,ugm-3,11,R,ugm-3,17,R,ugm-3
07-01-2007,06:00,4,R,ugm-3,10,R,ugm-3,15,R,ugm-3
07-01-2007,07:00,3,R,ugm-3,15,R,ugm-3,19,R,ugm-3
07-01-2007,08:00,3,R,ugm-3,21,R,ugm-3,25,R,ugm-3
07-01-2007,09:00,5,R,ugm-3,15,R,ugm-3,23,R,ugm-3
07-01-2007,10:00,9,R,ugm-3,13,R,ugm-3,27,R,ugm-3
07-01-2007,11:00,11,R,ugm-3,31,R,ugm-3,48,R,ugm-3
07-01-2007,12:00,15,R,ugm-3,25,R,ugm-3,48,R,ugm-3
07-01-2007,13:00,14,R,ugm-3,27,R,ugm-3,48,R,ugm-3
07-01-2007,14:00,19,R,ugm-3,27,R,ugm-3,55,R,ugm-3
07-01-2007,15:00,16,R,ugm-3,29,R,ugm-3,53,R,ugm-3
07-01-2007,16:00,16,R,ugm-3,29,R,ugm-3,53,R,ugm-3
07-01-2007,17:00,15,R,ugm-3,25,R,ugm-3,48,R,ugm-3
07-01-2007,18:00,13,R,ugm-3,27,R,ugm-3,46,R,ugm-3
07-01-2007,19:00,11,R,ugm-3,23,R,ugm-3,40,R,ugm-3
07-01-2007,20:00,6,R,ugm-3,17,R,ugm-3,27,R,ugm-3
07-01-2007,21:00,6,R,ugm-3,17,R,ugm-3,27,R,ugm-3
07-01-2007,22:00,5,R,ugm-3,13,R,ugm-3,21,R,ugm-3
07-01-2007,23:00,3,R,ugm-3,11,R,ugm-3,15,R,ugm-3
07-01-2007,24:00,4,R,ugm-3,10,R,ugm-3,15,R,ugm-3
08-01-2007,01:00,3,R,ugm-3,8,R,ugm-3,11,R,ugm-3
08-01-2007,02:00,3,R,ugm-3,11,R,ugm-3,15,R,ugm-3
08-01-2007,03:00,3,R,ugm-3,19,R,ugm-3,23,R,ugm-3
08-01-2007,04:00,1,R,ugm-3,11,R,ugm-3,13,R,ugm-3
08-01-2007,05:00,3,R,ugm-3,11,R,ugm-3,15,R,ugm-3
08-01-2007,06:00,9,R,ugm-3,31,R,ugm-3,44,R,ugm-3
08-01-2007,07:00,13,R,ugm-3,44,R,ugm-3,63,R,ugm-3
08-01-2007,08:00,44,R,ugm-3,50,R,ugm-3,117,R,ugm-3
08-01-2007,09:00,85,R,ugm-3,63,R,ugm-3,193,R,ugm-3
08-01-2007,10:00,110,R,ugm-3,73,R,ugm-3,241,R,ugm-3
08-01-2007,11:00,93,R,ugm-3,69,R,ugm-3,210,R,ugm-3
08-01-2007,12:00,80,R,ugm-3,57,R,ugm-3,180,R,ugm-3
08-01-2007,13:00,60,R,ugm-3,59,R,ugm-3,151,R,ugm-3
08-01-2007,14:00,61,R,ugm-3,57,R,ugm-3,151,R,ugm-3
08-01-2007,15:00,49,R,ugm-3,52,R,ugm-3,126,R,ugm-3
08-01-2007,16:00,46,R,ugm-3,53,R,ugm-3,124,R,ugm-3
08-01-2007,17:00,44,R,ugm-3,44,R,ugm-3,111,R,ugm-3
08-01-2007,18:00,51,R,ugm-3,52,R,ugm-3,130,R,ugm-3
08-01-2007,19:00,39,R,ugm-3,44,R,ugm-3,103,R,ugm-3
08-01-2007,20:00,21,R,ugm-3,32,R,ugm-3,65,R,ugm-3
08-01-2007,21:00,11,R,ugm-3,23,R,ugm-3,40,R,ugm-3
08-01-2007,22:00,10,R,ugm-3,19,R,ugm-3,34,R,ugm-3
08-01-2007,23:00,6,R,ugm-3,17,R,ugm-3,27,R,ugm-3
08-01-2007,24:00,6,R,ugm-3,17,R,ugm-3,27,R,ugm-3
09-01-2007,01:00,5,R,ugm-3,10,R,ugm-3,17,R,ugm-3
09-01-2007,02:00,4,R,ugm-3,11,R,ugm-3,17,R,ugm-3
09-01-2007,03:00,4,R,ugm-3,10,R,ugm-3,15,R,ugm-3
09-01-2007,04:00,3,R,ugm-3,8,R,ugm-3,11,R,ugm-3
09-01-2007,05:00,3,R,ugm-3,8,R,ugm-3,11,R,ugm-3
09-01-2007,06:00,4,R,ugm-3,8,R,ugm-3,13,R,ugm-3
09-01-2007,07:00,6,R,ugm-3,11,R,ugm-3,21,R,ugm-3
09-01-2007,08:00,11,R,ugm-3,19,R,ugm-3,36,R,ugm-3
09-01-2007,09:00,28,R,ugm-3,32,R,ugm-3,74,R,ugm-3
09-01-2007,10:00,39,R,ugm-3,48,R,ugm-3,107,R,ugm-3
09-01-2007,11:00,63,R,ugm-3,48,R,ugm-3,143,R,ugm-3
09-01-2007,12:00,45,R,ugm-3,44,R,ugm-3,113,R,ugm-3
09-01-2007,13:00,33,R,ugm-3,36,R,ugm-3,86,R,ugm-3
09-01-2007,14:00,26,R,ugm-3,36,R,ugm-3,76,R,ugm-3
09-01-2007,15:00,33,R,ugm-3,42,R,ugm-3,92,R,ugm-3
09-01-2007,16:00,21,R,ugm-3,31,R,ugm-3,63,R,ugm-3
09-01-2007,17:00,49,R,ugm-3,48,R,ugm-3,122,R,ugm-3
09-01-2007,18:00,41,R,ugm-3,42,R,ugm-3,105,R,ugm-3
09-01-2007,19:00,28,R,ugm-3,40,R,ugm-3,82,R,ugm-3
09-01-2007,20:00,15,R,ugm-3,32,R,ugm-3,55,R,ugm-3
09-01-2007,21:00,10,R,ugm-3,32,R,ugm-3,48,R,ugm-3
09-01-2007,22:00,6,R,ugm-3,21,R,ugm-3,31,R,ugm-3
09-01-2007,23:00,4,R,ugm-3,21,R,ugm-3,27,R,ugm-3
09-01-2007,24:00,6,R,ugm-3,11,R,ugm-3,21,R,ugm-3
10-01-2007,01:00,3,R,ugm-3,11,R,ugm-3,15,R,ugm-3
10-01-2007,02:00,3,R,ugm-3,13,R,ugm-3,17,R,ugm-3
10-01-2007,03:00,1,R,ugm-3,11,R,ugm-3,13,R,ugm-3
10-01-2007,04:00,1,R,ugm-3,13,R,ugm-3,15,R,ugm-3
10-01-2007,05:00,1,R,ugm-3,11,R,ugm-3,13,R,ugm-3
10-01-2007,06:00,3,R,ugm-3,13,R,ugm-3,17,R,ugm-3
10-01-2007,07:00,5,R,ugm-3,25,R,ugm-3,32,R,ugm-3
10-01-2007,08:00,13,R,ugm-3,25,R,ugm-3,44,R,ugm-3
10-01-2007,09:00,45,R,ugm-3,44,R,ugm-3,113,R,ugm-3
10-01-2007,10:00,45,R,ugm-3,44,R,ugm-3,113,R,ugm-3
10-01-2007,11:00,51,R,ugm-3,53,R,ugm-3,132,R,ugm-3
10-01-2007,12:00,58,R,ugm-3,59,R,ugm-3,147,R,ugm-3
10-01-2007,13:00,60,R,ugm-3,61,R,ugm-3,153,R,ugm-3
10-01-2007,14:00,40,R,ugm-3,44,R,ugm-3,105,R,ugm-3
10-01-2007,15:00,45,R,ugm-3,46,R,ugm-3,115,R,ugm-3
10-01-2007,16:00,39,R,ugm-3,44,R,ugm-3,103,R,ugm-3
10-01-2007,17:00,60,R,ugm-3,53,R,ugm-3,145,R,ugm-3
10-01-2007,18:00,45,R,ugm-3,55,R,ugm-3,124,R,ugm-3
10-01-2007,19:00,53,R,ugm-3,63,R,ugm-3,143,R,ugm-3
10-01-2007,20:00,39,R,ugm-3,50,R,ugm-3,109,R,ugm-3
10-01-2007,21:00,19,R,ugm-3,44,R,ugm-3,73,R,ugm-3
10-01-2007,22:00,14,R,ugm-3,32,R,ugm-3,53,R,ugm-3
10-01-2007,23:00,10,R,ugm-3,27,R,ugm-3,42,R,ugm-3
10-01-2007,24:00,10,R,ugm-3,29,R,ugm-3,44,R,ugm-3
11-01-2007,01:00,,,,,,,,,
11-01-2007,02:00,3,R,ugm-3,15,R,ugm-3,19,R,ugm-3
11-01-2007,03:00,3,R,ugm-3,11,R,ugm-3,15,R,ugm-3
11-01-2007,04:00,0,R,ugm-3,11,R,ugm-3,11,R,ugm-3
11-01-2007,05:00,1,R,ugm-3,13,R,ugm-3,15,R,ugm-3
11-01-2007,06:00,1,R,ugm-3,19,R,ugm-3,21,R,ugm-3
11-01-2007,07:00,3,R,ugm-3,15,R,ugm-3,19,R,ugm-3
11-01-2007,08:00,10,R,ugm-3,21,R,ugm-3,36,R,ugm-3
11-01-2007,09:00,19,R,ugm-3,25,R,ugm-3,53,R,ugm-3
11-01-2007,10:00,16,R,ugm-3,25,R,ugm-3,50,R,ugm-3
11-01-2007,11:00,18,R,ugm-3,27,R,ugm-3,53,R,ugm-3
11-01-2007,12:00,21,R,ugm-3,31,R,ugm-3,63,R,ugm-3
11-01-2007,13:00,21,R,ugm-3,31,R,ugm-3,63,R,ugm-3
11-01-2007,14:00,19,R,ugm-3,27,R,ugm-3,55,R,ugm-3
11-01-2007,15:00,20,R,ugm-3,31,R,ugm-3,61,R,ugm-3
11-01-2007,16:00,25,R,ugm-3,31,R,ugm-3,69,R,ugm-3
11-01-2007,17:00,30,R,ugm-3,31,R,ugm-3,76,R,ugm-3
11-01-2007,18:00,26,R,ugm-3,32,R,ugm-3,73,R,ugm-3
11-01-2007,19:00,28,R,ugm-3,31,R,ugm-3,73,R,ugm-3
11-01-2007,20:00,14,R,ugm-3,21,R,ugm-3,42,R,ugm-3
11-01-2007,21:00,10,R,ugm-3,19,R,ugm-3,34,R,ugm-3
11-01-2007,22:00,10,R,ugm-3,23,R,ugm-3,38,R,ugm-3
11-01-2007,23:00,9,R,ugm-3,19,R,ugm-3,32,R,ugm-3
11-01-2007,24:00,10,R,ugm-3,25,R,ugm-3,40,R,ugm-3
12-01-2007,01:00,6,R,ugm-3,21,R,ugm-3,31,R,ugm-3
12-01-2007,02:00,8,R,ugm-3,27,R,ugm-3,38,R,ugm-3
12-01-2007,03:00,8,R,ugm-3,23,R,ugm-3,34,R,ugm-3
12-01-2007,04:00,4,R,ugm-3,15,R,ugm-3,21,R,ugm-3
12-01-2007,05:00,6,R,ugm-3,11,R,ugm-3,21,R,ugm-3
12-01-2007,06:00,6,R,ugm-3,13,R,ugm-3,23,R,ugm-3
12-01-2007,07:00,9,R,ugm-3,23,R,ugm-3,36,R,ugm-3
12-01-2007,08:00,25,R,ugm-3,36,R,ugm-3,74,R,ugm-3
12-01-2007,09:00,70,R,ugm-3,57,R,ugm-3,164,R,ugm-3
12-01-2007,10:00,64,R,ugm-3,61,R,ugm-3,159,R,ugm-3
12-01-2007,11:00,46,R,ugm-3,46,R,ugm-3,117,R,ugm-3
12-01-2007,12:00,41,R,ugm-3,46,R,ugm-3,109,R,ugm-3
12-01-2007,13:00,29,R,ugm-3,36,R,ugm-3,80,R,ugm-3
12-01-2007,14:00,38,R,ugm-3,36,R,ugm-3,94,R,ugm-3
12-01-2007,15:00,33,R,ugm-3,32,R,ugm-3,82,R,ugm-3
12-01-2007,16:00,30,R,ugm-3,31,R,ugm-3,76,R,ugm-3
12-01-2007,17:00,30,R,ugm-3,34,R,ugm-3,80,R,ugm-3
12-01-2007,18:00,33,R,ugm-3,34,R,ugm-3,84,R,ugm-3
12-01-2007,19:00,30,R,ugm-3,32,R,ugm-3,78,R,ugm-3
12-01-2007,20:00,30,R,ugm-3,32,R,ugm-3,78,R,ugm-3
12-01-2007,21:00,,,,,,,,,
12-01-2007,22:00,,,,,,,,,
12-01-2007,23:00,,,,,,,,,
12-01-2007,24:00,,,,,,,,,
13-01-2007,01:00,,,,,,,,,
13-01-2007,02:00,,,,,,,,,
13-01-2007,03:00,,,,,,,,,
13-01-2007,04:00,,,,,,,,,
13-01-2007,05:00,,,,,,,,,
13-01-2007,06:00,,,,,,,,,
13-01-2007,07:00,,,,,,,,,
13-01-2007,08:00,,,,,,,,,
13-01-2007,09:00,,,,,,,,,
13-01-2007,10:00,,,,,,,,,
13-01-2007,11:00,,,,,,,,,
13-01-2007,12:00,,,,,,,,,
13-01-2007,13:00,,,,,,,,,
13-01-2007,14:00,,,,,,,,,
13-01-2007,15:00,,,,,,,,,
13-01-2007,16:00,,,,,,,,,
13-01-2007,17:00,,,,,,,,,
13-01-2007,18:00,,,,,,,,,
13-01-2007,19:00,,,,,,,,,
13-01-2007,20:00,,,,,,,,,
13-01-2007,21:00,,,,,,,,,
13-01-2007,22:00,,,,,,,,,
13-01-2007,23:00,,,,,,,,,
13-01-2007,24:00,,,,,,,,,
14-01-2007,01:00,,,,,,,,,
14-01-2007,02:00,,,,,,,,,
14-01-2007,03:00,,,,,,,,,
14-01-2007,04:00,,,,,,,,,
14-01-2007,05:00,,,,,,,,,
14-01-2007,06:00,,,,,,,,,
14-01-2007,07:00,,,,,,,,,
14-01-2007,08:00,,,,,,,,,
14-01-2007,09:00,,,,,,,,,
14-01-2007,10:00,,,,,,,,,
14-01-2007,11:00,,,,,,,,,
14-01-2007,12:00,,,,,,,,,
14-01-2007,13:00,,,,,,,,,
14-01-2007,14:00,,,,,,,,,
14-01-2007,15:00,,,,,,,,,
14-01-2007,16:00,,,,,,,,,
14-01-2007,17:00,,,,,,,,,
14-01-2007,18:00,,,,,,,,,
14-01-2007,19:00,,,,,,,,,
14-01-2007,20:00,,,,,,,,,
14-01-2007,21:00,,,,,,,,,
14-01-2007,22:00,,,,,,,,,
14-01-2007,23:00,,,,,,,,,
14-01-2007,24:00,,,,,,,,,
15-01-2007,01:00,,,,,,,,,
15-01-2007,02:00,,,,,,,,,
15-01-2007,03:00,,,,,,,,,
15-01-2007,04:00,,,,,,,,,
15-01-2007,05:00,,,,,,,,,
15-01-2007,06:00,,,,,,,,,
15-01-2007,07:00,,,,,,,,,
15-01-2007,08:00,,,,,,,,,
15-01-2007,09:00,,,,,,,,,
15-01-2007,10:00,,,,,,,,,
15-01-2007,11:00,,,,,,,,,
15-01-2007,12:00,,,,,,,,,
15-01-2007,13:00,,,,,,,,,
15-01-2007,14:00,,,,,,,,,
15-01-2007,15:00,,,,,,,,,
15-01-2007,16:00,,,,,,,,,
15-01-2007,17:00,,,,,,,,,
15-01-2007,18:00,,,,,,,,,
15-01-2007,19:00,,,,,,,,,
15-01-2007,20:00,,,,,,,,,
15-01-2007,21:00,,,,,,,,,
15-01-2007,22:00,,,,,,,,,
15-01-2007,23:00,,,,,,,,,
15-01-2007,24:00,,,,,,,,,
16-01-2007,01:00,,,,,,,,,
16-01-2007,02:00,,,,,,,,,
16-01-2007,03:00,,,,,,,,,
16-01-2007,04:00,,,,,,,,,
16-01-2007,05:00,,,,,,,,,
16-01-2007,06:00,,,,,,,,,
16-01-2007,07:00,,,,,,,,,
16-01-2007,08:00,,,,,,,,,
16-01-2007,09:00,,,,,,,,,
16-01-2007,10:00,,,,,,,,,
16-01-2007,11:00,,,,,,,,,
16-01-2007,12:00,,,,,,,,,
16-01-2007,13:00,,,,,,,,,
16-01-2007,14:00,,,,,,,,,
16-01-2007,15:00,,,,,,,,,
16-01-2007,16:00,,,,,,,,,
16-01-2007,17:00,,,,,,,,,
16-01-2007,18:00,,,,,,,,,
16-01-2007,19:00,,,,,,,,,
16-01-2007,20:00,,,,,,,,,
16-01-2007,21:00,,,,,,,,,
16-01-2007,22:00,,,,,,,,,
16-01-2007,23:00,,,,,,,,,
16-01-2007,24:00,,,,,,,,,
17-01-2007,01:00,,,,,,,,,
17-01-2007,02:00,,,,,,,,,
17-01-2007,03:00,,,,,,,,,
17-01-2007,04:00,,,,,,,,,
17-01-2007,05:00,,,,,,,,,
17-01-2007,06:00,,,,,,,,,
17-01-2007,07:00,,,,,,,,,
17-01-2007,08:00,,,,,,,,,
17-01-2007,09:00,,,,,,,,,
17-01-2007,10:00,,,,,,,,,
17-01-2007,11:00,,,,,,,,,
17-01-2007,12:00,,,,,,,,,
17-01-2007,13:00,,,,,,,,,
17-01-2007,14:00,,,,,,,,,
17-01-2007,15:00,,,,,,,,,
17-01-2007,16:00,,,,,,,,,
17-01-2007,17:00,,,,,,,,,
17-01-2007,18:00,,,,,,,,,
17-01-2007,19:00,,,,,,,,,
17-01-2007,20:00,,,,,,,,,
17-01-2007,21:00,,,,,,,,,
17-01-2007,22:00,,,,,,,,,
17-01-2007,23:00,,,,,,,,,
17-01-2007,24:00,,,,,,,,,
18-01-2007,01:00,,,,,,,,,
18-01-2007,02:00,,,,,,,,,
18-01-2007,03:00,,,,,,,,,
18-01-2007,04:00,,,,,,,,,
18-01-2007,05:00,,,,,,,,,
18-01-2007,06:00,,,,,,,,,
18-01-2007,07:00,,,,,,,,,
18-01-2007,08:00,,,,,,,,,
18-01-2007,09:00,,,,,,,,,
18-01-2007,10:00,,,,,,,,,
18-01-2007,11:00,,,,,,,,,
18-01-2007,12:00,,,,,,,,,
18-01-2007,13:00,,,,,,,,,
18-01-2007,14:00,,,,,,,,,
18-01-2007,15:00,15,R,ugm-3,23,R,ugm-3,46,R,ugm-3
18-01-2007,16:00,18,R,ugm-3,21,R,ugm-3,48,R,ugm-3
18-01-2007,17:00,21,R,ugm-3,21,R,ugm-3,53,R,ugm-3
18-01-2007,18:00,19,R,ugm-3,25,R,ugm-3,53,R,ugm-3
18-01-2007,19:00,20,R,ugm-3,25,R,ugm-3,55,R,ugm-3
18-01-2007,20:00,20,R,ugm-3,27,R,ugm-3,57,R,ugm-3
18-01-2007,21:00,13,R,ugm-3,21,R,ugm-3,40,R,ugm-3
18-01-2007,22:00,9,R,ugm-3,27,R,ugm-3,40,R,ugm-3
18-01-2007,23:00,18,R,ugm-3,25,R,ugm-3,52,R,ugm-3
18-01-2007,24:00,10,R,ugm-3,21,R,ugm-3,36,R,ugm-3
19-01-2007,01:00,6,R,ugm-3,21,R,ugm-3,31,R,ugm-3
19-01-2007,02:00,5,R,ugm-3,17,R,ugm-3,25,R,ugm-3
19-01-2007,03:00,4,R,ugm-3,15,R,ugm-3,21,R,ugm-3
19-01-2007,04:00,3,R,ugm-3,13,R,ugm-3,17,R,ugm-3
19-01-2007,05:00,3,R,ugm-3,13,R,ugm-3,17,R,ugm-3
19-01-2007,06:00,3,R,ugm-3,13,R,ugm-3,17,R,ugm-3
19-01-2007,07:00,9,R,ugm-3,21,R,ugm-3,34,R,ugm-3
19-01-2007,08:00,15,R,ugm-3,31,R,ugm-3,53,R,ugm-3
19-01-2007,09:00,53,R,ugm-3,57,R,ugm-3,138,R,ugm-3
19-01-2007,10:00,59,R,ugm-3,55,R,ugm-3,145,R,ugm-3
19-01-2007,11:00,74,R,ugm-3,53,R,ugm-3,166,R,ugm-3
19-01-2007,12:00,53,R,ugm-3,46,R,ugm-3,126,R,ugm-3
19-01-2007,13:00,60,R,ugm-3,48,R,ugm-3,139,R,ugm-3
19-01-2007,14:00,56,R,ugm-3,48,R,ugm-3,134,R,ugm-3
19-01-2007,15:00,58,R,ugm-3,53,R,ugm-3,141,R,ugm-3
19-01-2007,16:00,65,R,ugm-3,61,R,ugm-3,160,R,ugm-3
19-01-2007,17:00,84,R,ugm-3,73,R,ugm-3,201,R,ugm-3
19-01-2007,18:00,56,R,ugm-3,61,R,ugm-3,147,R,ugm-3
19-01-2007,19:00,55,R,ugm-3,63,R,ugm-3,147,R,ugm-3
19-01-2007,20:00,30,R,ugm-3,46,R,ugm-3,92,R,ugm-3
19-01-2007,21:00,21,R,ugm-3,31,R,ugm-3,63,R,ugm-3
19-01-2007,22:00,15,R,ugm-3,32,R,ugm-3,55,R,ugm-3
19-01-2007,23:00,13,R,ugm-3,31,R,ugm-3,50,R,ugm-3
19-01-2007,24:00,11,R,ugm-3,32,R,ugm-3,50,R,ugm-3
20-01-2007,01:00,13,R,ugm-3,25,R,ugm-3,44,R,ugm-3
20-01-2007,02:00,8,R,ugm-3,17,R,ugm-3,29,R,ugm-3
20-01-2007,03:00,6,R,ugm-3,21,R,ugm-3,31,R,ugm-3
20-01-2007,04:00,5,R,ugm-3,15,R,ugm-3,23,R,ugm-3
20-01-2007,05:00,3,R,ugm-3,17,R,ugm-3,21,R,ugm-3
20-01-2007,06:00,1,R,ugm-3,6,R,ugm-3,8,R,ugm-3
20-01-2007,07:00,4,R,ugm-3,10,R,ugm-3,15,R,ugm-3
20-01-2007,08:00,8,R,ugm-3,17,R,ugm-3,29,R,ugm-3
20-01-2007,09:00,21,R,ugm-3,36,R,ugm-3,69,R,ugm-3
20-01-2007,10:00,20,R,ugm-3,32,R,ugm-3,63,R,ugm-3
20-01-2007,11:00,24,R,ugm-3,32,R,ugm-3,69,R,ugm-3
20-01-2007,12:00,23,R,ugm-3,29,R,ugm-3,63,R,ugm-3
20-01-2007,13:00,21,R,ugm-3,29,R,ugm-3,61,R,ugm-3
20-01-2007,14:00,24,R,ugm-3,29,R,ugm-3,65,R,ugm-3
20-01-2007,15:00,34,R,ugm-3,36,R,ugm-3,88,R,ugm-3
20-01-2007,16:00,31,R,ugm-3,44,R,ugm-3,92,R,ugm-3
20-01-2007,17:00,29,R,ugm-3,42,R,ugm-3,86,R,ugm-3
20-01-2007,18:00,34,R,ugm-3,38,R,ugm-3,90,R,ugm-3
20-01-2007,19:00,33,R,ugm-3,42,R,ugm-3,92,R,ugm-3
20-01-2007,20:00,21,R,ugm-3,36,R,ugm-3,69,R,ugm-3
20-01-2007,21:00,18,R,ugm-3,32,R,ugm-3,59,R,ugm-3
20-01-2007,22:00,15,R,ugm-3,27,R,ugm-3,50,R,ugm-3
20-01-2007,23:00,16,R,ugm-3,31,R,ugm-3,55,R,ugm-3
20-01-2007,24:00,13,R,ugm-3,27,R,ugm-3,46,R,ugm-3
21-01-2007,01:00,13,R,ugm-3,25,R,ugm-3,44,R,ugm-3
21-01-2007,02:00,10,R,ugm-3,23,R,ugm-3,38,R,ugm-3
21-01-2007,03:00,5,R,ugm-3,19,R,ugm-3,27,R,ugm-3
21-01-2007,04:00,5,R,ugm-3,13,R,ugm-3,21,R,ugm-3
21-01-2007,05:00,3,R,ugm-3,8,R,ugm-3,11,R,ugm-3
21-01-2007,06:00,4,R,ugm-3,8,R,ugm-3,13,R,ugm-3
21-01-2007,07:00,4,R,ugm-3,17,R,ugm-3,23,R,ugm-3
21-01-2007,08:00,11,R,ugm-3,25,R,ugm-3,42,R,ugm-3
21-01-2007,09:00,6,R,ugm-3,17,R,ugm-3,27,R,ugm-3
21-01-2007,10:00,5,R,ugm-3,17,R,ugm-3,25,R,ugm-3
21-01-2007,11:00,18,R,ugm-3,23,R,ugm-3,50,R,ugm-3
21-01-2007,12:00,19,R,ugm-3,29,R,ugm-3,57,R,ugm-3
21-01-2007,13:00,18,R,ugm-3,29,R,ugm-3,55,R,ugm-3
21-01-2007,14:00,23,R,ugm-3,29,R,ugm-3,63,R,ugm-3
21-01-2007,15:00,18,R,ugm-3,25,R,ugm-3,52,R,ugm-3
21-01-2007,16:00,21,R,ugm-3,31,R,ugm-3,63,R,ugm-3
21-01-2007,17:00,40,R,ugm-3,46,R,ugm-3,107,R,ugm-3
21-01-2007,18:00,43,R,ugm-3,52,R,ugm-3,117,R,ugm-3
21-01-2007,19:00,33,R,ugm-3,44,R,ugm-3,94,R,ugm-3
21-01-2007,20:00,18,R,ugm-3,36,R,ugm-3,63,R,ugm-3
21-01-2007,21:00,19,R,ugm-3,31,R,ugm-3,59,R,ugm-3
21-01-2007,22:00,16,R,ugm-3,32,R,ugm-3,57,R,ugm-3
21-01-2007,23:00,10,R,ugm-3,23,R,ugm-3,38,R,ugm-3
21-01-2007,24:00,13,R,ugm-3,27,R,ugm-3,46,R,ugm-3
22-01-2007,01:00,5,R,ugm-3,25,R,ugm-3,32,R,ugm-3
22-01-2007,02:00,3,R,ugm-3,17,R,ugm-3,21,R,ugm-3
22-01-2007,03:00,4,R,ugm-3,25,R,ugm-3,31,R,ugm-3
22-01-2007,04:00,8,R,ugm-3,32,R,ugm-3,44,R,ugm-3
22-01-2007,05:00,3,R,ugm-3,19,R,ugm-3,23,R,ugm-3
22-01-2007,06:00,5,R,ugm-3,21,R,ugm-3,29,R,ugm-3
22-01-2007,07:00,6,R,ugm-3,29,R,ugm-3,38,R,ugm-3
22-01-2007,08:00,9,R,ugm-3,27,R,ugm-3,40,R,ugm-3
22-01-2007,09:00,34,R,ugm-3,53,R,ugm-3,105,R,ugm-3
22-01-2007,10:00,45,R,ugm-3,53,R,ugm-3,122,R,ugm-3
22-01-2007,11:00,48,R,ugm-3,57,R,ugm-3,130,R,ugm-3
22-01-2007,12:00,24,R,ugm-3,34,R,ugm-3,71,R,ugm-3
22-01-2007,13:00,18,R,ugm-3,25,R,ugm-3,52,R,ugm-3
22-01-2007,14:00,20,R,ugm-3,25,R,ugm-3,55,R,ugm-3
22-01-2007,15:00,19,R,ugm-3,25,R,ugm-3,53,R,ugm-3
22-01-2007,16:00,15,R,ugm-3,25,R,ugm-3,48,R,ugm-3
22-01-2007,17:00,20,R,ugm-3,32,R,ugm-3,63,R,ugm-3
22-01-2007,18:00,23,R,ugm-3,38,R,ugm-3,73,R,ugm-3
22-01-2007,19:00,25,R,ugm-3,50,R,ugm-3,88,R,ugm-3
22-01-2007,20:00,21,R,ugm-3,53,R,ugm-3,86,R,ugm-3
22-01-2007,21:00,19,R,ugm-3,61,R,ugm-3,90,R,ugm-3
22-01-2007,22:00,38,R,ugm-3,65,R,ugm-3,122,R,ugm-3
22-01-2007,23:00,29,R,ugm-3,48,R,ugm-3,92,R,ugm-3
22-01-2007,24:00,23,R,ugm-3,38,R,ugm-3,73,R,ugm-3
23-01-2007,01:00,8,R,ugm-3,31,R,ugm-3,42,R,ugm-3
23-01-2007,02:00,4,R,ugm-3,25,R,ugm-3,31,R,ugm-3
23-01-2007,03:00,3,R,ugm-3,17,R,ugm-3,21,R,ugm-3
23-01-2007,04:00,1,R,ugm-3,15,R,ugm-3,17,R,ugm-3
23-01-2007,05:00,1,R,ugm-3,15,R,ugm-3,17,R,ugm-3
23-01-2007,06:00,8,R,ugm-3,23,R,ugm-3,34,R,ugm-3
23-01-2007,07:00,9,R,ugm-3,27,R,ugm-3,40,R,ugm-3
23-01-2007,08:00,24,R,ugm-3,40,R,ugm-3,76,R,ugm-3
23-01-2007,09:00,55,R,ugm-3,55,R,ugm-3,139,R,ugm-3
23-01-2007,10:00,50,R,ugm-3,53,R,ugm-3,130,R,ugm-3
23-01-2007,11:00,56,R,ugm-3,53,R,ugm-3,139,R,ugm-3
23-01-2007,12:00,48,R,ugm-3,52,R,ugm-3,124,R,ugm-3
23-01-2007,13:00,34,R,ugm-3,48,R,ugm-3,99,R,ugm-3
23-01-2007,14:00,40,R,ugm-3,50,R,ugm-3,111,R,ugm-3